PROGRESS-MS 13

Last updated on Thu Jul 09 2020 00:02:11 GMT+0000 (Coordinated Universal Time)

1 44833U 19085A 20190.52564231 .00000043 00000-0 89067-5 0 9997 2 44833 51.6443 242.8564 0002824 87.5152 65.9215 15.49184935 33331

Satellite not in orbit

PROGRESS-MS 13